Change the Weather History Date:

Monday, January 20, 2003

  Actual Average Record
Temperature  
Mean Temperature 6 °F -  
Max Temperature 18 °F 19 °F 45 °F (2013)
Min Temperature -5 °F 0 °F -20 °F (2000)
Degree Days  
Heating Degree Days 58    
Moisture  
Dew Point 1 °F    
Average Humidity 73    
Maximum Humidity 92    
Minimum Humidity 47    
Precipitation  
Precipitation 0.00 in - - ()
Sea Level Pressure  
Sea Level Pressure 29.49 in    
Wind  
Wind Speed 5 mph (WNW)    
Max Wind Speed 17 mph    
Max Gust Speed 28 mph    
Visibility 4 miles    
Events Fog , Snow    
Averages and records for this station are not official NWS values.
T = Trace of Precipitation, MM = Missing Value Source: NWS Daily Summary

Daily Weather History Graph

Daily Weather History Graph

Search for Another Location

Airport or City:

Trip Planner

Search our weather history database for the weather conditions in past years. The results will help you decide how hot, cold, wet, or windy it might be!

Date:

Astronomy

Jan. 20, 2003 Rise Set
Actual Time 7:15 AM EST 4:36 PM EST
Civil Twilight 6:43 AM EST 5:08 PM EST
Nautical Twilight 6:07 AM EST 5:44 PM EST
Astronomical Twilight 5:32 AM EST 6:19 PM EST
Moon 7:13 PM EST (1/20) 9:01 AM EST (1/20)
Length of Visible Light 10h 25m
Length of Day
9h 21m
Waning Gibbous, 94% of the Moon is Illuminated
Jan 20
Waning Gibbous
Jan 25
Last Quarter
Feb 1
New
Feb 9
First Quarter
Feb 16
Full

Hourly Weather History & Observations

Time (EST) Temp. Windchill Dew Point Humidity Pressure Visibility Wind Dir Wind Speed Gust Speed Precip Events Conditions
12:52 AM -5.1 °F - -9.9 °F 80% 29.67 in 8.0 mi Calm Calm - N/A   Clear
1:52 AM -4.0 °F - -8.0 °F 83% 29.65 in 10.0 mi Calm Calm - N/A   Overcast
2:52 AM -2.9 °F - -7.1 °F 82% 29.61 in 9.0 mi Calm Calm - N/A   Mostly Cloudy
3:52 AM -0.9 °F - -5.1 °F 83% 29.57 in 2.5 mi Calm Calm - 0.00 in Snow Light Snow
4:06 AM -0.4 °F - -5.8 °F 78% 29.47 in 3.0 mi Calm Calm - 0.00 in Snow Light Snow
4:52 AM 1.0 °F - -2.9 °F 83% 29.53 in 4.0 mi Calm Calm - 0.00 in Snow Light Snow
5:52 AM 1.9 °F - -2.0 °F 83% 29.52 in 2.0 mi Calm Calm - 0.00 in Snow Light Snow
6:12 AM 1.4 °F - -2.2 °F 85% 29.42 in 3.0 mi Calm Calm - 0.00 in Snow Light Snow
6:21 AM 1.4 °F - -2.2 °F 85% 29.42 in 2.0 mi Calm Calm - 0.00 in Snow Light Snow
6:52 AM 1.9 °F - -0.9 °F 88% 29.50 in 1.8 mi Calm Calm - 0.00 in Snow Light Snow
7:15 AM 1.4 °F - -0.4 °F 92% 29.40 in 2.0 mi Calm Calm - 0.00 in Snow Light Snow
7:22 AM 1.4 °F - -0.4 °F 92% 29.40 in 1.2 mi Calm Calm - 0.00 in Snow Light Snow
7:40 AM 1.4 °F - -0.4 °F 92% 29.40 in 1.8 mi Calm Calm - 0.00 in Snow Light Snow
7:52 AM 1.9 °F - -0.9 °F 88% 29.49 in 3.0 mi Calm Calm - 0.00 in Snow Light Snow
8:00 AM 1.4 °F - -0.4 °F 92% 29.39 in 2.0 mi Calm Calm - 0.00 in Snow Light Snow
8:15 AM 1.4 °F - -0.4 °F 92% 29.39 in 3.0 mi Calm Calm - 0.00 in Snow Light Snow
8:52 AM 3.9 °F - -0.9 °F 80% 29.48 in 8.0 mi Calm Calm - 0.00 in   Overcast
9:02 AM 5.0 °F - -0.4 °F 78% 29.38 in 8.0 mi Calm Calm - N/A   Mostly Cloudy
9:52 AM 8.1 °F - 1.9 °F 76% 29.47 in 6.0 mi Calm Calm - N/A   Haze
10:52 AM 15.1 °F 7.7 °F 9.0 °F 77% 29.45 in 3.0 mi Variable 4.6 mph - 0.00 in Snow Light Snow
11:52 AM 16.0 °F 6.3 °F 8.1 °F 71% 29.44 in 2.0 mi WSW 6.9 mph - 0.00 in Snow Light Snow
12:10 PM 15.8 °F 6.1 °F 6.8 °F 68% 29.36 in 6.0 mi Variable 6.9 mph - 0.00 in Snow Light Snow
12:52 PM 18.0 °F 6.9 °F 5.0 °F 57% 29.43 in 10.0 mi WNW 9.2 mph 17.3 mph 0.00 in   Mostly Cloudy
1:16 PM 17.6 °F 4.3 °F 6.8 °F 63% 29.35 in 1.5 mi WNW 12.7 mph 19.6 mph 0.00 in Snow Light Snow
1:21 PM 17.6 °F 4.3 °F 8.6 °F 68% 29.35 in 0.8 mi North 12.7 mph 19.6 mph 0.00 in Snow Light Snow
1:26 PM 15.8 °F 3.4 °F 6.8 °F 68% 29.35 in 1.5 mi West 10.4 mph - 0.00 in Snow Light Snow
1:28 PM 15.8 °F 4.2 °F 6.8 °F 68% 29.35 in 3.0 mi WNW 9.2 mph - 0.00 in Snow Light Snow
1:52 PM 15.1 °F 2.5 °F 7.0 °F 70% 29.44 in 1.5 mi NW 10.4 mph 16.1 mph 0.00 in Snow Light Snow
1:54 PM 15.8 °F 0.9 °F 8.6 °F 73% 29.36 in 0.8 mi North 15.0 mph 21.9 mph 0.00 in Snow Light Snow
2:01 PM 14.0 °F 2.0 °F 10.4 °F 86% 29.37 in 0.5 mi West 9.2 mph 21.9 mph 0.00 in Fog , Snow Snow
2:14 PM 15.8 °F 6.1 °F 8.6 °F 73% 29.36 in 2.0 mi WNW 6.9 mph 16.1 mph 0.00 in Snow Light Snow
2:21 PM 15.8 °F 2.1 °F 6.8 °F 68% 29.37 in 6.0 mi West 12.7 mph 18.4 mph 0.00 in Snow Light Snow
2:37 PM 15.8 °F 2.7 °F 5.0 °F 62% 29.38 in 5.0 mi WNW 11.5 mph 21.9 mph 0.00 in Snow Light Snow
2:41 PM 14.0 °F 1.2 °F 6.8 °F 73% 29.38 in 1.5 mi West 10.4 mph 20.7 mph 0.00 in Snow Light Snow
2:43 PM 14.0 °F 3.9 °F 6.8 °F 73% 29.38 in 1.0 mi West 6.9 mph 18.4 mph 0.00 in Snow Light Snow
2:52 PM 14.0 °F 1.2 °F 6.1 °F 71% 29.47 in 3.0 mi West 10.4 mph - 0.00 in Snow Light Snow
3:04 PM 15.8 °F 4.2 °F 6.8 °F 68% 29.40 in 1.8 mi WNW 9.2 mph - 0.00 in Snow Light Snow
3:07 PM 14.0 °F -0.8 °F 6.8 °F 73% 29.40 in 0.8 mi NW 13.8 mph 20.7 mph 0.00 in Snow Light Snow
3:17 PM 14.0 °F 0.5 °F 6.8 °F 73% 29.41 in 1.5 mi North 11.5 mph 18.4 mph 0.00 in Snow Light Snow
3:19 PM 14.0 °F 2.0 °F 6.8 °F 73% 29.41 in 4.0 mi West 9.2 mph 18.4 mph 0.00 in Snow Light Snow
3:29 PM 14.0 °F -0.2 °F -0.4 °F 53% 29.41 in 9.0 mi West 12.7 mph 23.0 mph 0.00 in   Scattered Clouds
3:41 PM 12.2 °F -4.3 °F -0.4 °F 57% 29.42 in 1.8 mi North 16.1 mph 27.6 mph 0.00 in   Scattered Clouds
3:52 PM 12.9 °F -0.9 °F -4.0 °F 47% 29.51 in 5.0 mi West 11.5 mph 26.5 mph 0.00 in   Haze
4:52 PM 12.0 °F -0.4 °F -4.0 °F 49% 29.55 in 10.0 mi West 9.2 mph 21.9 mph N/A   Overcast
5:52 PM 10.9 °F -0.8 °F 1.0 °F 64% 29.57 in 9.0 mi West 8.1 mph 17.3 mph 0.00 in   Overcast
5:59 PM 10.4 °F -0.4 °F 1.4 °F 67% 29.49 in 7.0 mi Variable 6.9 mph - 0.00 in Snow Light Snow
6:15 PM 10.4 °F -5.4 °F 1.4 °F 67% 29.49 in 1.8 mi West 13.8 mph 25.3 mph 0.00 in Snow Light Snow
6:35 PM 10.4 °F -6.6 °F 1.4 °F 67% 29.50 in 2.0 mi WNW 16.1 mph 25.3 mph 0.00 in Snow Light Snow
6:44 PM 10.4 °F -1.5 °F -0.4 °F 62% 29.50 in 4.0 mi WNW 8.1 mph 21.9 mph 0.00 in Snow Light Snow
6:52 PM 9.0 °F -5.9 °F 1.9 °F 73% 29.59 in 1.5 mi West 11.5 mph 20.7 mph 0.00 in Snow Light Snow
6:54 PM 8.6 °F -6.3 °F 1.4 °F 73% 29.51 in 1.2 mi West 11.5 mph 20.7 mph 0.00 in Snow Light Snow
7:17 PM 8.6 °F -3.7 °F 3.2 °F 79% 29.53 in 1.2 mi WNW 8.1 mph 19.6 mph 0.00 in Snow Light Snow
7:21 PM 8.6 °F -7.0 °F 3.2 °F 79% 29.53 in 1.8 mi West 12.7 mph 21.9 mph 0.00 in Snow Light Snow
7:28 PM 8.6 °F -5.5 °F 1.4 °F 73% 29.53 in 2.5 mi NW 10.4 mph 18.4 mph 0.00 in Snow Light Snow
7:35 PM 8.6 °F -9.5 °F 1.4 °F 73% 29.54 in 3.0 mi NW 17.3 mph 21.9 mph 0.00 in Snow Light Snow
7:40 PM 8.6 °F -9.5 °F 1.4 °F 73% 29.54 in 1.8 mi North 17.3 mph 21.9 mph 0.00 in Snow Light Snow
7:52 PM 8.1 °F - 1.0 °F 73% 29.63 in 3.0 mi North - - 0.00 in   Overcast
8:52 PM 6.1 °F -10.9 °F -5.1 °F 60% 29.67 in 8.0 mi North 13.8 mph 23.0 mph 0.00 in   Overcast
9:38 PM 5.0 °F -10.8 °F -5.8 °F 61% 29.60 in 8.0 mi North 11.5 mph 21.9 mph N/A   Mostly Cloudy
9:52 PM 3.9 °F -8.2 °F -5.1 °F 66% 29.69 in 10.0 mi Variable 6.9 mph 16.1 mph N/A   Mostly Cloudy
10:09 PM 3.2 °F -7.8 °F -5.8 °F 66% 29.61 in 10.0 mi Variable 5.8 mph - N/A   Overcast
10:30 PM 3.2 °F -10.3 °F -7.6 °F 61% 29.62 in 10.0 mi North 8.1 mph - N/A   Overcast
10:52 PM 3.0 °F -8.0 °F -6.0 °F 66% 29.70 in 10.0 mi North 5.8 mph 16.1 mph N/A   Overcast
11:05 PM 3.2 °F -4.2 °F -2.2 °F 78% 29.63 in 2.5 mi Variable 3.5 mph - 0.00 in Snow Light Snow
11:15 PM 3.2 °F -7.8 °F -9.4 °F 56% 29.63 in 1.8 mi Variable 5.8 mph - 0.00 in Snow Light Snow
11:28 PM 3.2 °F -11.3 °F -5.8 °F 66% 29.63 in 3.0 mi NNW 9.2 mph - 0.00 in Snow Light Snow
11:52 PM 1.9 °F -9.2 °F -5.1 °F 72% 29.71 in 2.5 mi Variable 5.8 mph 19.6 mph 0.00 in Snow Light Snow